TimeCST,TemperatureF,Dew PointF,Humidity,Sea Level PressureIn,VisibilityMPH,Wind Direction,Wind SpeedMPH,Gust SpeedMPH,PrecipitationIn,Events,Conditions,WindDirDegrees,DateUTC
12:15 AM,23.0,17.6,80,30.49,10.0,Calm,Calm,-,N/A,,Clear,0,2013-01-18 06:15:00
12:35 AM,23.0,19.4,86,30.49,10.0,Calm,Calm,-,N/A,,Clear,0,2013-01-18 06:35:00
12:55 AM,24.8,17.6,74,30.50,10.0,Calm,Calm,-,N/A,,Clear,0,2013-01-18 06:55:00
1:15 AM,21.2,17.6,86,30.50,10.0,Calm,Calm,-,N/A,,Clear,0,2013-01-18 07:15:00
1:35 AM,21.2,17.6,86,30.50,10.0,Calm,Calm,-,N/A,,Clear,0,2013-01-18 07:35:00
1:55 AM,21.2,19.4,93,30.50,10.0,Calm,Calm,-,N/A,,Clear,0,2013-01-18 07:55:00
2:15 AM,21.2,17.6,86,30.50,10.0,Calm,Calm,-,N/A,,Clear,0,2013-01-18 08:15:00
2:35 AM,21.2,17.6,86,30.51,10.0,Calm,Calm,-,N/A,,Clear,0,2013-01-18 08:35:00
2:55 AM,21.2,19.4,93,30.50,10.0,Calm,Calm,-,N/A,,Clear,0,2013-01-18 08:55:00
3:15 AM,21.2,17.6,86,30.51,10.0,Calm,Calm,-,N/A,,Clear,0,2013-01-18 09:15:00
3:35 AM,19.4,17.6,93,30.51,10.0,Calm,Calm,-,N/A,,Clear,0,2013-01-18 09:35:00
3:55 AM,21.2,17.6,86,30.50,10.0,Calm,Calm,-,N/A,,Clear,0,2013-01-18 09:55:00
4:15 AM,19.4,17.6,93,30.51,10.0,Calm,Calm,-,N/A,,Clear,0,2013-01-18 10:15:00
4:35 AM,19.4,19.4,100,30.50,10.0,Calm,Calm,-,N/A,,Clear,0,2013-01-18 10:35:00
4:55 AM,19.4,15.8,86,30.50,10.0,South,3.5,-,N/A,,Clear,170,2013-01-18 10:55:00
5:15 AM,19.4,17.6,93,30.49,10.0,South,3.5,-,N/A,,Clear,170,2013-01-18 11:15:00
5:35 AM,19.4,15.8,86,30.48,10.0,Calm,Calm,-,N/A,,Clear,0,2013-01-18 11:35:00
5:55 AM,19.4,15.8,86,30.49,10.0,Calm,Calm,-,N/A,,Clear,0,2013-01-18 11:55:00
6:15 AM,19.4,15.8,86,30.49,10.0,Calm,Calm,-,N/A,,Clear,0,2013-01-18 12:15:00
6:35 AM,19.4,14.0,80,30.49,10.0,Calm,Calm,-,N/A,,Clear,0,2013-01-18 12:35:00
6:55 AM,19.4,15.8,86,30.48,10.0,Calm,Calm,-,N/A,,Clear,0,2013-01-18 12:55:00
7:15 AM,19.4,15.8,86,30.49,10.0,Calm,Calm,-,N/A,,Clear,0,2013-01-18 13:15:00
7:35 AM,19.4,17.6,93,30.49,10.0,Calm,Calm,-,N/A,,Clear,0,2013-01-18 13:35:00
7:55 AM,21.2,17.6,86,30.48,10.0,SE,3.5,-,N/A,,Clear,140,2013-01-18 13:55:00
8:15 AM,23.0,19.4,86,30.49,10.0,South,5.8,-,N/A,,Clear,180,2013-01-18 14:15:00
8:35 AM,26.6,21.2,80,30.49,10.0,South,5.8,-,N/A,,Clear,180,2013-01-18 14:35:00
8:55 AM,28.4,21.2,74,30.49,10.0,South,4.6,-,N/A,,Clear,170,2013-01-18 14:55:00
9:15 AM,30.2,21.2,69,30.49,10.0,SSW,4.6,-,N/A,,Clear,200,2013-01-18 15:15:00
9:35 AM,33.8,23.0,65,30.49,10.0,South,16.1,-,N/A,,Clear,190,2013-01-18 15:35:00
9:55 AM,33.8,23.0,65,30.49,10.0,South,12.7,-,N/A,,Clear,190,2013-01-18 15:55:00
10:15 AM,35.6,21.2,56,30.48,10.0,South,12.7,-,N/A,,Clear,190,2013-01-18 16:15:00
10:35 AM,37.4,23.0,56,30.48,10.0,South,10.4,-,N/A,,Clear,190,2013-01-18 16:35:00
10:55 AM,39.2,23.0,52,30.46,10.0,South,6.9,-,N/A,,Clear,180,2013-01-18 16:55:00
11:15 AM,41.0,23.0,49,30.44,10.0,SSW,9.2,17.3,N/A,,Clear,200,2013-01-18 17:15:00
11:35 AM,42.8,21.2,42,30.43,10.0,SW,19.6,-,N/A,,Clear,220,2013-01-18 17:35:00
11:55 AM,42.8,23.0,46,30.41,10.0,SW,18.4,24.2,N/A,,Clear,220,2013-01-18 17:55:00
12:15 PM,44.6,24.8,46,30.39,10.0,SSW,11.5,19.6,N/A,,Clear,200,2013-01-18 18:15:00
12:35 PM,46.4,23.0,40,30.37,10.0,South,18.4,-,N/A,,Clear,190,2013-01-18 18:35:00
12:55 PM,46.4,23.0,40,30.36,10.0,South,17.3,20.7,N/A,,Clear,190,2013-01-18 18:55:00
1:15 PM,48.2,23.0,37,30.35,10.0,SSW,15.0,20.7,N/A,,Clear,200,2013-01-18 19:15:00
1:35 PM,48.2,23.0,37,30.34,10.0,SSW,13.8,24.2,N/A,,Clear,200,2013-01-18 19:35:00
1:55 PM,48.2,24.8,40,30.33,10.0,SSW,13.8,19.6,N/A,,Clear,200,2013-01-18 19:55:00
2:15 PM,50.0,23.0,35,30.32,10.0,South,17.3,-,N/A,,Clear,190,2013-01-18 20:15:00
2:35 PM,50.0,24.8,37,30.31,10.0,South,16.1,20.7,N/A,,Clear,190,2013-01-18 20:35:00
2:55 PM,51.8,23.0,33,30.30,10.0,South,16.1,21.9,N/A,,Clear,180,2013-01-18 20:55:00
3:15 PM,51.8,24.8,35,30.29,10.0,South,12.7,20.7,N/A,,Clear,190,2013-01-18 21:15:00
3:35 PM,50.0,23.0,35,30.28,10.0,South,15.0,-,N/A,,Clear,190,2013-01-18 21:35:00
3:55 PM,50.0,23.0,35,30.28,10.0,SSW,12.7,19.6,N/A,,Clear,200,2013-01-18 21:55:00
4:15 PM,48.2,23.0,37,30.27,10.0,South,15.0,19.6,N/A,,Clear,180,2013-01-18 22:15:00
4:35 PM,48.2,23.0,37,30.27,10.0,South,12.7,20.7,N/A,,Clear,180,2013-01-18 22:35:00
4:55 PM,46.4,24.8,43,30.27,10.0,South,12.7,-,N/A,,Clear,180,2013-01-18 22:55:00
5:15 PM,44.6,23.0,43,30.27,10.0,South,15.0,-,N/A,,Clear,180,2013-01-18 23:15:00
5:35 PM,42.8,24.8,49,30.27,10.0,South,13.8,-,N/A,,Clear,180,2013-01-18 23:35:00
5:55 PM,42.8,24.8,49,30.27,10.0,South,15.0,18.4,N/A,,Clear,180,2013-01-18 23:55:00
6:15 PM,41.0,24.8,53,30.27,10.0,South,15.0,18.4,N/A,,Clear,180,2013-01-19 00:15:00
6:35 PM,39.2,24.8,56,30.27,10.0,South,13.8,19.6,N/A,,Clear,180,2013-01-19 00:35:00
6:55 PM,39.2,24.8,56,30.26,10.0,South,17.3,21.9,N/A,,Clear,180,2013-01-19 00:55:00
7:15 PM,39.2,24.8,56,30.26,10.0,South,16.1,-,N/A,,Clear,170,2013-01-19 01:15:00
7:35 PM,37.4,24.8,60,30.26,10.0,South,13.8,24.2,N/A,,Clear,180,2013-01-19 01:35:00
7:55 PM,37.4,26.6,65,30.26,10.0,South,15.0,21.9,N/A,,Clear,180,2013-01-19 01:55:00
8:35 PM,37.4,26.6,65,30.24,10.0,South,16.1,21.9,N/A,,Clear,180,2013-01-19 02:35:00
8:55 PM,37.4,28.4,70,30.24,10.0,South,15.0,-,N/A,,Clear,190,2013-01-19 02:55:00
9:15 PM,37.4,28.4,70,30.23,10.0,South,17.3,26.5,N/A,,Clear,190,2013-01-19 03:15:00
9:35 PM,37.4,28.4,70,30.23,10.0,South,20.7,28.8,N/A,,Clear,190,2013-01-19 03:35:00
9:55 PM,37.4,28.4,70,30.23,10.0,SSW,16.1,24.2,N/A,,Clear,200,2013-01-19 03:55:00
10:15 PM,37.4,28.4,70,30.22,10.0,SSW,17.3,24.2,N/A,,Clear,200,2013-01-19 04:15:00
10:35 PM,39.2,28.4,65,30.22,10.0,SSW,17.3,20.7,N/A,,Clear,200,2013-01-19 04:35:00
10:55 PM,37.4,28.4,70,30.22,10.0,SSW,10.4,-,N/A,,Clear,200,2013-01-19 04:55:00
11:15 PM,37.4,28.4,70,30.21,10.0,SSW,12.7,16.1,N/A,,Clear,200,2013-01-19 05:15:00
11:35 PM,37.4,28.4,70,30.20,10.0,South,15.0,19.6,N/A,,Clear,190,2013-01-19 05:35:00
11:55 PM,37.4,28.4,70,30.20,10.0,SSW,15.0,-,N/A,,Clear,200,2013-01-19 05:55:00